When you browse on this site, cookies collect data to enhance your experience and personalize the content and advertising you see.
Visit our Privacy Policy to learn more. By continuing to use the site, you agree to this use of cookies and data.
  • In Österreich
  • Länderverzeichnis
  • Für 7 Tage
  • Wassertemperatur
  • Wetterkarte
  • News
  • Widgets
  • user-avatar
    Anmelden

    Stündliche Wetter Kurbatovschina

    Heute, 29 Mai, Freitag

    Zeit Temperatur Niederschläge Wind Luftdruck Luftfeuchtigkeit
    00:00 +13°C° 0 mm 2 m/S 747 mmHg 77%
    01:00 +12°C° 0 mm 2 m/S 747 mmHg 80%
    02:00 +11°C° 0 mm 3 m/S 747 mmHg 84%
    03:00 +11°C° 0.2 mm 3 m/S 747 mmHg 87%
    04:00 +10°C° 0.2 mm 3 m/S 746 mmHg 90%
    05:00 +10°C° 0.2 mm 2 m/S 746 mmHg 94%
    06:00 +11°C° 0.3 mm 3 m/S 746 mmHg 94%
    07:00 +11°C° 0.3 mm 3 m/S 746 mmHg 94%
    08:00 +11°C° 0.3 mm 3 m/S 746 mmHg 94%
    09:00 +11°C° 0.4 mm 4 m/S 745 mmHg 94%
    10:00 +12°C° 0.4 mm 4 m/S 745 mmHg 94%
    11:00 +12°C° 0.4 mm 4 m/S 745 mmHg 94%
    12:00 +12°C° 0.4 mm 4 m/S 745 mmHg 94%
    13:00 +12°C° 0.4 mm 4 m/S 745 mmHg 93%
    14:00 +12°C° 0.4 mm 4 m/S 745 mmHg 93%
    15:00 +12°C° 0 mm 4 m/S 745 mmHg 90%
    16:00 +13°C° 0 mm 4 m/S 744 mmHg 88%
    17:00 +13°C° 0 mm 5 m/S 744 mmHg 85%
    18:00 +13°C° 0 mm 4 m/S 744 mmHg 85%
    19:00 +13°C° 0 mm 4 m/S 744 mmHg 85%
    20:00 +13°C° 0 mm 4 m/S 744 mmHg 86%
    21:00 +12°C° 0 mm 4 m/S 744 mmHg 86%
    22:00 +12°C° 0 mm 4 m/S 744 mmHg 87%
    23:00 +12°C° 0 mm 4 m/S 743 mmHg 88%

    Morgen, 30 Mai, Samstag

    Zeit Temperatur Niederschläge Wind Luftdruck Luftfeuchtigkeit
    00:00 +10°C° 0 mm 5 m/S 743 mmHg 88%
    01:00 +10°C° 0 mm 5 m/S 743 mmHg 89%
    02:00 +10°C° 0 mm 5 m/S 743 mmHg 89%
    03:00 +10°C° 0 mm 5 m/S 743 mmHg 89%
    04:00 +12°C° 0 mm 5 m/S 743 mmHg 88%
    05:00 +12°C° 0 mm 5 m/S 742 mmHg 88%
    06:00 +12°C° 0.4 mm 5 m/S 742 mmHg 89%
    07:00 +12°C° 0.4 mm 5 m/S 742 mmHg 90%
    08:00 +11°C° 0.4 mm 6 m/S 742 mmHg 91%
    09:00 +11°C° 1.5 mm 6 m/S 742 mmHg 93%
    10:00 +11°C° 1.5 mm 6 m/S 741 mmHg 94%
    11:00 +11°C° 1.5 mm 7 m/S 741 mmHg 96%
    12:00 +11°C° 1.2 mm 7 m/S 741 mmHg 96%
    13:00 +11°C° 1.2 mm 7 m/S 741 mmHg 95%
    14:00 +11°C° 1.2 mm 7 m/S 741 mmHg 95%
    15:00 +12°C° 0.2 mm 7 m/S 741 mmHg 94%
    16:00 +12°C° 0.2 mm 7 m/S 740 mmHg 94%
    17:00 +12°C° 0.2 mm 7 m/S 740 mmHg 93%
    18:00 +14°C° 0.1 mm 7 m/S 740 mmHg 90%
    19:00 +14°C° 0.1 mm 7 m/S 740 mmHg 87%
    20:00 +14°C° 0.1 mm 7 m/S 740 mmHg 84%
    21:00 +15°C° 0 mm 7 m/S 740 mmHg 81%
    22:00 +15°C° 0 mm 7 m/S 740 mmHg 78%
    23:00 +15°C° 0 mm 7 m/S 740 mmHg 75%

    übermorgen, 31 Mai, Sonntag

    Zeit Temperatur Niederschläge Wind Luftdruck Luftfeuchtigkeit
    00:00 +14°C° 0 mm 7 m/S 740 mmHg 75%
    01:00 +14°C° 0 mm 7 m/S 740 mmHg 75%
    02:00 +12°C° 0 mm 7 m/S 740 mmHg 75%
    03:00 +12°C° 0 mm 7 m/S 740 mmHg 74%
    04:00 +12°C° 0 mm 7 m/S 740 mmHg 72%
    05:00 +11°C° 0 mm 7 m/S 741 mmHg 71%
    06:00 +12°C° 0 mm 7 m/S 741 mmHg 67%
    07:00 +13°C° 0 mm 8 m/S 741 mmHg 63%
    08:00 +13°C° 0 mm 8 m/S 742 mmHg 60%
    09:00 +15°C° 0 mm 7 m/S 742 mmHg 57%
    10:00 +16°C° 0 mm 7 m/S 743 mmHg 54%
    11:00 +17°C° 0 mm 7 m/S 743 mmHg 51%
    12:00 +18°C° 0 mm 7 m/S 743 mmHg 49%
    13:00 +18°C° 0 mm 7 m/S 744 mmHg 47%
    14:00 +20°C° 0 mm 7 m/S 744 mmHg 46%
    15:00 +19°C° 0 mm 6 m/S 744 mmHg 49%
    16:00 +17°C° 0 mm 5 m/S 744 mmHg 52%
    17:00 +17°C° 0 mm 5 m/S 744 mmHg 54%
    18:00 +15°C° 0 mm 4 m/S 745 mmHg 59%
    19:00 +14°C° 0 mm 4 m/S 745 mmHg 64%
    20:00 +12°C° 0 mm 3 m/S 746 mmHg 69%
    21:00 +11°C° 0 mm 3 m/S 746 mmHg 67%
    22:00 +10°C° 0 mm 3 m/S 747 mmHg 66%
    23:00 +9°C° 0 mm 3 m/S 747 mmHg 64%

    1 Juni, Montag

    Zeit Temperatur Niederschläge Wind Luftdruck Luftfeuchtigkeit
    00:00 +9°C° 0 mm 3 m/S 747 mmHg 67%
    01:00 +8°C° 0 mm 3 m/S 748 mmHg 69%
    02:00 +7°C° 0 mm 3 m/S 748 mmHg 72%
    03:00 +7°C° 0 mm 3 m/S 748 mmHg 72%
    04:00 +7°C° 0 mm 3 m/S 748 mmHg 73%
    05:00 +5°C° 0 mm 3 m/S 748 mmHg 74%
    06:00 +7°C° 0 mm 4 m/S 748 mmHg 67%
    07:00 +8°C° 0 mm 4 m/S 748 mmHg 59%
    08:00 +11°C° 0 mm 4 m/S 748 mmHg 52%
    09:00 +11°C° 0 mm 4 m/S 748 mmHg 50%
    10:00 +12°C° 0 mm 4 m/S 748 mmHg 47%
    11:00 +13°C° 0 mm 4 m/S 748 mmHg 45%
    12:00 +14°C° 0 mm 4 m/S 748 mmHg 43%
    13:00 +14°C° 0 mm 4 m/S 748 mmHg 42%
    14:00 +15°C° 0 mm 4 m/S 748 mmHg 41%
    15:00 +15°C° 0 mm 4 m/S 748 mmHg 44%
    16:00 +14°C° 0 mm 3 m/S 748 mmHg 46%
    17:00 +14°C° 0 mm 3 m/S 747 mmHg 48%
    18:00 +14°C° 0 mm 2 m/S 747 mmHg 54%
    19:00 +13°C° 0 mm 2 m/S 747 mmHg 59%
    20:00 +10°C° 0 mm 2 m/S 748 mmHg 64%
    21:00 +9°C° 0 mm 2 m/S 748 mmHg 68%
    22:00 +8°C° 0 mm 1 m/S 748 mmHg 73%
    23:00 +7°C° 0 mm 1 m/S 748 mmHg 77%

    2 Juni, Dienstag

    Zeit Temperatur Niederschläge Wind Luftdruck Luftfeuchtigkeit
    00:00 +6°C° 0 mm 1 m/S 748 mmHg 79%
    01:00 +6°C° 0 mm 1 m/S 748 mmHg 82%
    02:00 +4°C° 0 mm 0 m/S 748 mmHg 84%
    03:00 +6°C° 0 mm 1 m/S 748 mmHg 82%
    04:00 +7°C° 0 mm 1 m/S 748 mmHg 79%
    05:00 +7°C° 0 mm 1 m/S 748 mmHg 77%
    06:00 +9°C° 0 mm 1 m/S 748 mmHg 69%
    07:00 +11°C° 0 mm 1 m/S 748 mmHg 60%
    08:00 +13°C° 0 mm 2 m/S 748 mmHg 52%
    09:00 +14°C° 0 mm 2 m/S 748 mmHg 51%
    10:00 +14°C° 0 mm 2 m/S 748 mmHg 50%
    11:00 +14°C° 0 mm 2 m/S 747 mmHg 48%
    12:00 +15°C° 0 mm 2 m/S 747 mmHg 47%
    13:00 +15°C° 0 mm 2 m/S 747 mmHg 46%
    14:00 +16°C° 0 mm 2 m/S 747 mmHg 45%
    15:00 +16°C° 0 mm 2 m/S 746 mmHg 46%
    16:00 +16°C° 0 mm 2 m/S 746 mmHg 47%
    17:00 +16°C° 0 mm 2 m/S 746 mmHg 48%
    18:00 +14°C° 0 mm 2 m/S 746 mmHg 55%
    19:00 +12°C° 0 mm 1 m/S 746 mmHg 62%
    20:00 +10°C° 0 mm 1 m/S 745 mmHg 70%
    21:00 +9°C° 0 mm 1 m/S 745 mmHg 70%
    22:00 +9°C° 0 mm 1 m/S 745 mmHg 70%
    23:00 +8°C° 0 mm 1 m/S 746 mmHg 71%

    3 Juni, Mittwoch

    Zeit Temperatur Niederschläge Wind Luftdruck Luftfeuchtigkeit
    00:00 +8°C° 0 mm 1 m/S 745 mmHg 70%
    01:00 +8°C° 0 mm 1 m/S 745 mmHg 70%
    02:00 +8°C° 0 mm 1 m/S 745 mmHg 70%
    03:00 +9°C° 0 mm 1 m/S 745 mmHg 71%
    04:00 +9°C° 0 mm 1 m/S 745 mmHg 73%
    05:00 +9°C° 0 mm 1 m/S 744 mmHg 74%
    06:00 +11°C° 0 mm 1 m/S 744 mmHg 70%
    07:00 +13°C° 0 mm 1 m/S 744 mmHg 66%
    08:00 +14°C° 0 mm 1 m/S 744 mmHg 61%
    09:00 +15°C° 0.1 mm 1 m/S 744 mmHg 58%
    10:00 +16°C° 0.1 mm 1 m/S 744 mmHg 55%
    11:00 +18°C° 0.1 mm 1 m/S 744 mmHg 52%
    12:00 +17°C° 0.2 mm 2 m/S 743 mmHg 54%
    13:00 +17°C° 0.2 mm 2 m/S 743 mmHg 55%
    14:00 +17°C° 0.2 mm 2 m/S 743 mmHg 57%
    15:00 +17°C° 0.2 mm 2 m/S 743 mmHg 61%
    16:00 +17°C° 0.2 mm 2 m/S 742 mmHg 64%
    17:00 +17°C° 0.2 mm 2 m/S 742 mmHg 67%
    18:00 +15°C° 0.1 mm 2 m/S 742 mmHg 75%
    19:00 +14°C° 0.1 mm 2 m/S 742 mmHg 83%
    20:00 +12°C° 0.1 mm 2 m/S 741 mmHg 90%
    21:00 +12°C° 0 mm 2 m/S 741 mmHg 90%
    22:00 +12°C° 0 mm 2 m/S 742 mmHg 90%
    23:00 +10°C° 0 mm 2 m/S 742 mmHg 90%
    Mehr zeigen